K5KVN-2 Weather Reports


time (UTC)temp
F
wind
direction
speed
knots
gust
knots
rain 1hr
in
rain 24hr
in
rain mn
in
humidity
%
barometer
mb
20260903215702 97 153 7.8 17.4 0.00 0.00 0.00 40 1013.4
20260903214701 96 168 7.8 12.2 0.00 0.00 0.00 41 1013.3
20260903214142 96 174 7.8 15.6 0.00 0.00 0.00 42 1013.6
20260903212701 97 171 7.8 13.0 0.00 0.00 0.00 41 1013.7
20260903211702 97 187 7.8 12.2 0.00 0.00 0.00 41 1013.7
20260903211134 96 161 7.0 14.8 0.00 0.00 0.00 41 1013.9
20260903205658 96 171 7.8 14.8 0.00 0.00 0.00 42 1013.8
20260903204657 96 173 7.8 14.8 0.00 0.00 0.00 43 1014.0
20260903203658 95 175 6.1 13.0 0.00 0.00 0.00 43 1014.0
20260903202659 96 153 7.0 15.6 0.00 0.00 0.00 43 1014.1
20260903201657 97 182 6.1 15.6 0.00 0.00 0.00 41 1014.1
20260903200659 97 182 6.1 10.4 0.00 0.00 0.00 40 1014.2
20260903195700 96 144 7.0 12.2 0.00 0.00 0.00 42 1014.2
20260903194657 97 123 7.8 14.8 0.00 0.00 0.00 41 1014.3
20260903193658 97 129 6.1 11.3 0.00 0.00 0.00 41 1014.3
20260903192659 96 190 7.8 17.4 0.00 0.00 0.00 43 1014.4
20260903191659 97 167 7.8 17.4 0.00 0.00 0.00 41 1014.5
20260903190659 96 164 7.8 17.4 0.00 0.00 0.00 42 1014.5
20260903185658 96 196 7.8 13.9 0.00 0.00 0.00 42 1014.6
20260903184655 96 175 7.8 15.6 0.00 0.00 0.00 42 1014.9
20260903183657 96 155 9.6 17.4 0.00 0.00 0.00 41 1014.9
20260903182654 96 165 9.6 19.1 0.00 0.00 0.00 42 1015.1
20260903181655 95 163 9.6 15.6 0.00 0.00 0.00 43 1015.1
20260903180651 95 163 8.7 19.1 0.00 0.00 0.00 43 1015.2
20260903175651 94 182 8.7 14.8 0.00 0.00 0.00 43 1015.6
20260903174648 94 171 5.2 12.2 0.00 0.00 0.00 45 1015.6
20260903173645 94 176 7.8 15.6 0.00 0.00 0.00 46 1015.9
20260903172645 94 194 7.8 13.9 0.00 0.00 0.00 46 1016.0
20260903172126 93 186 7.8 13.9 0.00 0.00 0.00 47 1016.2
20260903170644 92 175 7.8 14.8 0.00 0.00 0.00 48 1016.3
20260903165637 92 146 7.8 12.2 0.00 0.00 0.00 49 1016.4
20260903164637 92 177 7.8 14.8 0.00 0.00 0.00 49 1016.5
20260903162638 91 200 7.8 15.6 0.00 0.00 0.00 51 1016.5
20260903161637 91 205 9.6 15.6 0.00 0.00 0.00 51 1016.6
20260903160637 90 179 8.7 17.4 0.00 0.00 0.00 51 1016.6
20260903155639 89 163 9.6 14.8 0.00 0.00 0.00 52 1016.7
20260903154637 89 183 7.8 13.9 0.00 0.00 0.00 53 1016.7
20260903153638 89 174 7.0 12.2 0.00 0.00 0.00 54 1016.8
20260903152632 88 167 7.0 14.8 0.00 0.00 0.00 55 1016.8
20260903151633 87 178 6.1 12.2 0.00 0.00 0.00 56 1017.0
20260903145631 86 165 5.2 13.0 0.00 0.00 0.00 59 1017.0
20260903144630 85 156 5.2 11.3 0.00 0.00 0.00 61 1017.0
20260903143630 84 157 5.2 8.7 0.00 0.00 0.00 63 1017.0
20260903142630 83 158 7.0 9.6 0.00 0.00 0.00 64 1017.2
20260903142117 83 140 7.0 12.2 0.00 0.00 0.00 65 1017.2
20260903140630 82 153 6.1 12.2 0.00 0.00 0.00 67 1017.3
20260903135629 82 153 5.2 9.6 0.00 0.00 0.00 68 1017.4
20260903134629 81 180 5.2 9.6 0.00 0.00 0.00 69 1017.5
20260903134112 80 165 4.3 8.7 0.00 0.00 0.00 72 1017.5
20260903132630 79 168 3.5 5.2 0.00 0.00 0.00 73 1017.5
20260903132109 79 148 2.6 3.5 0.00 0.00 0.00 75 1017.3
20260903130629 78 172 2.6 4.3 0.00 0.00 0.00 75 1017.3
20260903125630 77 157 1.7 3.5 0.00 0.00 0.00 78 1017.4
20260903124632 76 147 1.7 3.5 0.00 0.00 0.00 81 1017.3
20260903124110 74 126 0.0 2.6 0.00 0.00 0.00 83 1017.3
20260903122630 74 132 0.0 0.0 0.00 0.00 0.00 83 1017.2
20260903121628 74 132 0.0 0.0 0.00 0.00 0.00 84 1017.0
20260903120626 73 132 0.0 0.0 0.00 0.00 0.00 84 1016.9
20260903115625 73 132 0.0 0.0 0.00 0.00 0.00 85 1016.8
20260903114625 73 132 0.0 0.0 0.00 0.00 0.00 84 1016.9
20260903113625 74 132 0.0 0.0 0.00 0.00 0.00 83 1016.8
20260903112626 74 132 0.0 0.0 0.00 0.00 0.00 82 1016.6
20260903111627 74 132 0.0 0.0 0.00 0.00 0.00 82 1016.6
20260903105626 76 132 0.0 0.0 0.00 0.00 0.00 80 1016.6
20260903104623 76 132 0.0 0.0 0.00 0.00 0.00 79 1016.5
20260903103624 75 132 0.0 0.0 0.00 0.00 0.00 80 1016.4
20260903102617 75 132 0.0 1.7 0.00 0.00 0.00 80 1016.4
20260903101617 76 136 0.9 3.5 0.00 0.00 0.00 80 1016.5
20260903100618 76 131 1.7 3.5 0.00 0.00 0.00 80 1016.4
20260903095617 75 117 1.7 5.2 0.00 0.00 0.00 80 1016.4
20260903094617 76 128 1.7 2.6 0.00 0.00 0.00 80 1016.4
20260903093618 77 119 0.0 3.5 0.00 0.00 0.00 77 1016.4
20260903093056 78 124 0.0 0.0 0.00 0.00 0.00 75 1016.4
20260903091618 78 165 0.0 0.0 0.00 0.00 0.00 75 1016.5
20260903090618 78 155 0.0 0.0 0.00 0.00 0.00 74 1016.3
20260903085614 78 130 0.0 0.0 0.00 0.00 0.00 74 1016.3
20260903084614 79 130 0.0 0.0 0.00 0.00 0.00 73 1016.3
20260903083613 79 130 0.0 0.0 0.00 0.00 0.00 73 1016.3
20260903083114 79 133 2.6 3.5 0.00 0.00 0.00 73 1016.2
20260903081614 78 132 2.6 3.5 0.00 0.00 0.00 73 1016.3
20260903080612 78 130 1.7 2.6 0.00 0.00 0.00 73 1016.1
20260903075613 79 123 1.7 2.6 0.00 0.00 0.00 72 1016.2
20260903074608 79 131 0.9 2.6 0.00 0.00 0.00 71 1016.2
20260903073608 80 136 0.9 1.7 0.00 0.00 0.00 70 1016.2
20260903072609 80 140 1.7 2.6 0.00 0.00 0.00 70 1016.2
20260903071609 80 134 1.7 2.6 0.00 0.00 0.00 70 1016.2
20260903070604 80 152 1.7 3.5 0.00 0.00 0.00 69 1016.1
20260903065605 80 150 2.6 4.3 0.00 0.00 0.00 69 1016.1
20260903064604 80 184 2.6 5.2 0.00 0.00 0.00 68 1016.2
20260903063604 80 180 0.9 4.3 0.00 0.00 0.00 68 1016.1
20260903063041 80 192 0.0 0.0 0.00 0.00 0.00 69 1016.1
20260903061603 79 171 0.0 0.0 0.00 0.00 0.00 70 1015.9
20260903060603 80 147 0.0 0.0 0.00 0.00 0.00 69 1016.0
20260903055602 80 124 0.0 0.0 0.00 0.00 0.00 69 1016.0
20260903054603 80 132 0.0 0.0 0.00 0.00 0.00 68 1016.1
20260903053601 82 132 0.0 0.0 0.00 0.00 0.00 65 1016.0
20260903052603 83 142 0.0 0.0 0.00 0.00 0.00 63 1015.9
20260903051601 83 133 0.0 0.0 0.00 0.00 0.00 62 1015.9
20260903050600 84 133 0.0 0.0 0.00 0.00 0.00 61 1015.9
20260903045601 84 133 0.0 0.9 0.00 0.00 0.00 60 1015.7
20260903044603 84 133 1.7 2.6 0.00 0.00 0.00 60 1015.6
20260903043601 85 132 2.6 3.5 0.00 0.00 0.00 60 1015.7
20260903042602 85 144 2.6 6.1 0.00 0.00 0.00 59 1015.6
20260903041602 85 141 2.6 4.3 0.00 0.00 0.00 58 1015.9
20260903040604 85 143 3.5 5.2 0.00 0.00 0.00 58 1016.0
20260903035603 85 132 3.5 7.0 0.00 0.00 0.00 57 1015.9
20260903034601 86 136 3.5 7.0 0.00 0.00 0.00 57 1015.9
20260903033602 86 131 3.5 6.1 0.00 0.00 0.00 57 1015.9
20260903032602 86 144 3.5 7.0 0.00 0.00 0.00 56 1015.9
20260903031601 86 134 4.3 6.1 0.00 0.00 0.00 56 1015.7
20260903030601 87 132 3.5 6.1 0.00 0.00 0.00 56 1015.9
20260903025601 87 149 3.5 6.1 0.00 0.00 0.00 56 1015.7
20260903024601 87 123 2.6 4.3 0.00 0.00 0.00 55 1015.9
20260903023601 88 133 3.5 6.1 0.00 0.00 0.00 54 1015.5
20260903022601 88 128 3.5 7.0 0.00 0.00 0.00 54 1015.5
20260903021603 88 155 3.5 7.0 0.00 0.00 0.00 53 1015.4
20260903020557 89 154 4.3 7.8 0.00 0.00 0.00 53 1015.3
20260903015557 89 133 4.3 7.0 0.00 0.00 0.00 52 1015.0
20260903014556 89 126 4.3 7.8 0.00 0.00 0.00 51 1014.9
20260903013601 89 166 4.3 9.6 0.00 0.00 0.00 51 1014.8
20260903012559 90 154 3.5 7.0 0.00 0.00 0.00 50 1014.7
20260903012041 90 133 3.5 5.2 0.00 0.00 0.00 49 1014.5
20260903010558 91 150 3.5 6.1 0.00 0.00 0.00 48 1014.5
20260903005556 92 135 5.2 8.7 0.00 0.00 0.00 47 1014.4
20260903004558 92 152 5.2 11.3 0.00 0.00 0.00 46 1014.4
20260903004043 92 119 4.3 6.1 0.00 0.00 0.00 45 1014.3
20260903003024 93 123 4.3 8.7 0.00 0.00 0.00 44 1014.2
20260903002024 94 121 4.3 8.7 0.00 0.00 0.00 43 1014.2
20260903000550 94 156 5.2 7.8 0.00 0.00 0.00 42 1014.2
20260902235548 95 182 4.3 11.3 0.00 0.00 0.00 40 1014.2
20260902234548 95 184 6.1 9.6 0.00 0.00 0.00 40 1014.2
20260902233549 95 163 7.0 10.4 0.00 0.00 0.00 39 1014.2
20260902232548 96 178 7.0 12.2 0.00 0.00 0.00 40 1014.3
20260902231549 96 162 7.0 10.4 0.00 0.00 0.00 39 1014.4
20260902230547 96 183 6.1 12.2 0.00 0.00 0.00 38 1014.4
20260902225547 95 118 1.7 7.8 0.00 0.00 0.00 41 1014.3
20260902224545 95 111 2.6 5.2 0.00 0.00 0.00 41 1014.4
20260902223544 95 135 3.5 7.0 0.00 0.00 0.00 40 1014.5
20260902222541 96 128 4.3 7.8 0.00 0.00 0.00 38 1014.7
20260902221544 97 123 4.3 7.0 0.00 0.00 0.00 37 1014.7